Waterville, ME

4:24 PM EDT on May 22, 2017 (GMT -0400)
Waterville Lafleur

Weather History for KWVL - April, 2014

Change the Weather History Date:

Wednesday, April 16, 2014

  Actual Average Record
Temperature  
Mean Temperature 30 °F -  
Max Temperature 37 °F 56 °F 79 °F (1973)
Min Temperature 24 °F 31 °F 11 °F (1981)
Degree Days  
Heating Degree Days 34    
Moisture  
Dew Point 17 °F    
Average Humidity 59    
Maximum Humidity 93    
Minimum Humidity 33    
Precipitation  
Precipitation 0.17 in - - ()
Sea Level Pressure  
Sea Level Pressure 30.14 in    
Wind  
Wind Speed 12 mph (NW)    
Max Wind Speed 24 mph    
Max Gust Speed 34 mph    
Visibility 8 miles    
Events      
Averages and records for this station are not official NWS values.
T = Trace of Precipitation, MM = Missing Value Source: NWS Daily Summary

Daily Weather History Graph

Daily Weather History Graph

Search for Another Location

Airport or City:

Trip Planner

Search our weather history database for the weather conditions in past years. The results will help you decide how hot, cold, wet, or windy it might be!

Date:

Astronomy

Apr. 16, 2014 Rise Set
Actual Time 5:53 AM EDT 7:24 PM EDT
Civil Twilight 5:22 AM EDT 7:55 PM EDT
Nautical Twilight 4:45 AM EDT 8:32 PM EDT
Astronomical Twilight 4:06 AM EDT 9:11 PM EDT
Moon 9:08 PM EDT (4/16) 6:35 AM EDT (4/16)
Length of Visible Light 14h 32m
Length of Day
13h 31m
Full, 98% of the Moon is Illuminated
Apr 16
Full
Apr 22
Last Quarter
Apr 29
New
May 6
First Quarter
May 14
Full

Hourly Weather History & Observations

Time (EDT) Temp. Windchill Dew Point Humidity Pressure Visibility Wind Dir Wind Speed Gust Speed Precip Events Conditions
12:15 AM 37.4 °F 30.3 °F 35.6 °F 93% 29.63 in 5.0 mi NW 10.4 mph - 0.01 in   Overcast
12:35 AM 37.4 °F 29.8 °F 35.6 °F 93% 29.64 in 6.0 mi NW 11.5 mph 16.1 mph 0.04 in   Overcast
12:55 AM 37.4 °F 29.3 °F 33.8 °F 87% 29.66 in 6.0 mi WNW 12.7 mph - 0.06 in   Overcast
1:15 AM 35.6 °F 26.6 °F 32.0 °F 87% 29.68 in 4.0 mi WNW 13.8 mph 17.3 mph 0.02 in   Overcast
1:35 AM 35.6 °F 28.0 °F 30.2 °F 81% 29.65 in 5.0 mi NW 10.4 mph 17.3 mph 0.03 in   Overcast
1:55 AM 33.8 °F 24.3 °F 30.2 °F 87% 29.69 in 4.0 mi WNW 13.8 mph 20.7 mph 0.05 in   Overcast
2:15 AM 33.8 °F 25.3 °F 30.2 °F 87% 29.70 in 3.0 mi NW 11.5 mph 19.6 mph 0.02 in   Overcast
2:35 AM 33.8 °F 22.8 °F 28.4 °F 81% 29.69 in 3.0 mi NW 18.4 mph 33.4 mph 0.02 in   Overcast
2:55 AM 32.0 °F 19.2 °F 26.6 °F 80% 29.71 in 6.0 mi WNW 23.0 mph 33.4 mph 0.02 in   Mostly Cloudy
3:15 AM 30.2 °F 17.8 °F 26.6 °F 86% 29.72 in 3.0 mi NW 19.6 mph 28.8 mph N/A   Overcast
3:35 AM 30.2 °F 16.5 °F 26.6 °F 86% 29.71 in 1.5 mi WNW 24.2 mph 34.5 mph N/A   Overcast
3:55 AM 30.2 °F 18.1 °F 24.8 °F 80% 29.74 in 2.0 mi WNW 18.4 mph 31.1 mph N/A   Overcast
4:15 AM 28.4 °F 17.5 °F 26.6 °F 93% 29.75 in 0.8 mi WNW 13.8 mph 23.0 mph N/A   Overcast
4:35 AM 28.4 °F 18.5 °F 24.8 °F 86% 29.79 in 0.8 mi West 11.5 mph 17.3 mph N/A   Overcast
4:55 AM 26.6 °F 14.3 °F 24.8 °F 93% 29.80 in 0.8 mi WNW 16.1 mph 21.9 mph N/A   Overcast
5:15 AM 26.6 °F 16.2 °F 24.8 °F 93% 29.78 in 2.5 mi NW 11.5 mph 18.4 mph N/A   Scattered Clouds
5:35 AM 28.4 °F 19.1 °F 23.0 °F 80% 29.82 in 10.0 mi WNW 10.4 mph 18.4 mph N/A   Mostly Cloudy
5:55 AM 28.4 °F 19.1 °F 21.2 °F 74% 29.83 in 10.0 mi WNW 10.4 mph - N/A   Overcast
6:15 AM 28.4 °F 19.7 °F 19.4 °F 69% 29.84 in 10.0 mi NW 9.2 mph - N/A   Overcast
6:35 AM 28.4 °F 19.7 °F 19.4 °F 69% 29.87 in 10.0 mi NW 9.2 mph - N/A   Overcast
6:55 AM 28.4 °F 21.2 °F 17.6 °F 64% 29.91 in 10.0 mi NNW 6.9 mph 18.4 mph N/A   Overcast
7:15 AM 26.6 °F 17.5 °F 17.6 °F 69% 29.95 in 10.0 mi WNW 9.2 mph - N/A   Mostly Cloudy
7:35 AM 26.6 °F 18.2 °F 17.6 °F 69% 29.95 in 10.0 mi NW 8.1 mph - N/A   Clear
7:55 AM 26.6 °F 16.8 °F 17.6 °F 69% 29.98 in 10.0 mi WNW 10.4 mph - N/A   Clear
8:15 AM 26.6 °F 16.2 °F 17.6 °F 69% 30.01 in 10.0 mi WNW 11.5 mph - N/A   Clear
8:35 AM 26.6 °F 16.2 °F 15.8 °F 64% 30.04 in 10.0 mi WNW 11.5 mph 16.1 mph N/A   Clear
8:55 AM 28.4 °F 19.1 °F 15.8 °F 59% 30.05 in 10.0 mi WNW 10.4 mph - N/A   Partly Cloudy
9:15 AM 28.4 °F 17.0 °F 15.8 °F 59% 30.06 in 10.0 mi NW 15.0 mph 20.7 mph N/A   Partly Cloudy
9:35 AM 28.4 °F 16.6 °F 14.0 °F 55% 30.08 in 10.0 mi NW 16.1 mph 24.2 mph N/A   Clear
9:55 AM 30.2 °F 18.9 °F 14.0 °F 51% 30.10 in 10.0 mi NW 16.1 mph 24.2 mph N/A   Clear
10:15 AM 30.2 °F 19.3 °F 12.2 °F 47% 30.12 in 10.0 mi West 15.0 mph 26.5 mph N/A   Clear
10:35 AM 30.2 °F 18.9 °F 12.2 °F 47% 30.14 in 10.0 mi West 16.1 mph 20.7 mph N/A   Clear
10:55 AM 30.2 °F 19.8 °F 14.0 °F 51% 30.15 in 10.0 mi NW 13.8 mph 23.0 mph N/A   Partly Cloudy
11:15 AM 30.2 °F 19.3 °F 12.2 °F 47% 30.16 in 10.0 mi WNW 15.0 mph 21.9 mph N/A   Partly Cloudy
11:35 AM 32.0 °F 21.2 °F 12.2 °F 44% 30.16 in 10.0 mi NW 16.1 mph 21.9 mph 0.01 in   Partly Cloudy
11:55 AM 32.0 °F 21.2 °F 12.2 °F 44% 30.17 in 10.0 mi NNW 16.1 mph 23.0 mph 0.03 in   Partly Cloudy
12:15 PM 33.8 °F 24.8 °F 12.2 °F 41% 30.18 in 10.0 mi NW 12.7 mph 19.6 mph N/A   Clear
12:35 PM 33.8 °F 24.3 °F 15.8 °F 48% 30.19 in 10.0 mi North 13.8 mph 20.7 mph N/A   Clear
12:55 PM 33.8 °F 25.3 °F 12.2 °F 41% 30.20 in 10.0 mi WNW 11.5 mph 20.7 mph N/A   Partly Cloudy
1:15 PM 33.8 °F 24.8 °F 12.2 °F 41% 30.22 in 10.0 mi NW 12.7 mph 18.4 mph N/A   Clear
1:35 PM 33.8 °F 25.8 °F 14.0 °F 44% 30.23 in 10.0 mi West 10.4 mph 23.0 mph N/A   Clear
1:55 PM 35.6 °F 26.2 °F 12.2 °F 38% 30.25 in 10.0 mi WNW 15.0 mph 26.5 mph 0.01 in   Clear
2:15 PM 35.6 °F 26.2 °F 12.2 °F 38% 30.26 in 10.0 mi WNW 15.0 mph 21.9 mph N/A   Clear
2:35 PM 35.6 °F 27.5 °F 12.2 °F 38% 30.27 in 10.0 mi West 11.5 mph 18.4 mph N/A   Clear
2:55 PM 35.6 °F 26.2 °F 14.0 °F 41% 30.30 in 10.0 mi WNW 15.0 mph 23.0 mph N/A   Clear
3:15 PM 35.6 °F 26.6 °F 12.2 °F 38% 30.30 in 10.0 mi WNW 13.8 mph 20.7 mph N/A   Clear
3:35 PM 35.6 °F 25.2 °F 14.0 °F 41% 30.31 in 10.0 mi West 18.4 mph 23.0 mph N/A   Clear
3:55 PM 35.6 °F 26.6 °F 12.2 °F 38% 30.31 in 10.0 mi NW 13.8 mph 21.9 mph N/A   Clear
4:15 PM 35.6 °F 26.6 °F 10.4 °F 35% 30.32 in 10.0 mi NW 13.8 mph 23.0 mph N/A   Clear
4:35 PM 35.6 °F 26.6 °F 10.4 °F 35% 30.33 in 10.0 mi NW 13.8 mph 24.2 mph N/A   Clear
4:55 PM 35.6 °F 28.0 °F 12.2 °F 38% 30.35 in 10.0 mi WNW 10.4 mph 17.3 mph N/A   Clear
5:15 PM 35.6 °F 26.2 °F 10.4 °F 35% 30.37 in 10.0 mi WNW 15.0 mph 19.6 mph N/A   Clear
5:35 PM 35.6 °F 28.0 °F 8.6 °F 33% 30.37 in 10.0 mi NNW 10.4 mph 18.4 mph N/A   Clear
5:55 PM 35.6 °F 30.7 °F 8.6 °F 33% 30.39 in 10.0 mi NW 5.8 mph - N/A   Clear
6:15 PM 33.8 °F 24.3 °F 10.4 °F 38% 30.40 in 10.0 mi NNW 13.8 mph - N/A   Clear
6:35 PM 33.8 °F 25.8 °F 10.4 °F 38% 30.41 in 10.0 mi NNW 10.4 mph 16.1 mph N/A   Clear
6:55 PM 33.8 °F 25.3 °F 10.4 °F 38% 30.42 in 10.0 mi NNW 11.5 mph - N/A   Clear
7:15 PM 32.0 °F 24.2 °F 10.4 °F 41% 30.43 in 10.0 mi NNW 9.2 mph - N/A   Clear
7:55 PM 30.2 °F 22.6 °F 12.2 °F 47% 30.47 in 10.0 mi North 8.1 mph - N/A   Clear
8:15 PM 28.4 °F 19.7 °F 12.2 °F 51% 30.49 in 10.0 mi NNW 9.2 mph - N/A   Clear
8:35 PM 28.4 °F 20.4 °F 12.2 °F 51% 30.51 in 10.0 mi NNW 8.1 mph - N/A   Clear
8:55 PM 28.4 °F 21.2 °F 12.2 °F 51% 30.52 in 10.0 mi North 6.9 mph - N/A   Clear
9:15 PM 28.4 °F 22.2 °F 12.2 °F 51% 30.54 in 10.0 mi North 5.8 mph - N/A   Clear
9:35 PM 26.6 °F 19.1 °F 12.2 °F 55% 30.54 in 10.0 mi North 6.9 mph - N/A   Clear
9:55 PM 26.6 °F 21.2 °F 12.2 °F 55% 30.55 in 10.0 mi North 4.6 mph - N/A   Clear
10:15 PM 26.6 °F 19.1 °F 12.2 °F 55% 30.56 in 10.0 mi North 6.9 mph - N/A   Clear
10:35 PM 26.6 °F 20.0 °F 12.2 °F 55% 30.57 in 10.0 mi North 5.8 mph - N/A   Clear
10:55 PM 24.8 °F 17.9 °F 12.2 °F 59% 30.57 in 10.0 mi NNW 5.8 mph - N/A   Clear
11:15 PM 24.8 °F 20.5 °F 12.2 °F 59% 30.59 in 10.0 mi NNE 3.5 mph - N/A   Clear
11:35 PM 24.8 °F - 12.2 °F 59% 30.59 in 10.0 mi Calm Calm - N/A   Clear
11:55 PM 24.8 °F - 15.8 °F 69% 30.60 in 10.0 mi Calm Calm - N/A   Clear